Wind_Speed
102 103 104 110 112 113 116 118 118 120 125 125 121 119 115 108 104 103 91 88 82 84 80 75 72 70 67 65 66 68 69 68 66 62 59 59 58 57 56 55 51 51 51 49 52 50 48
100 104 106 109 113 117 119 120 122 121 122 122 125 124 118 118 111 107 105 92 87 91 83 86 79 77 68 67 77 70 69 69 68 68 66 65 63 63 62 60 55 55 56 56 57 55 57
103 101 103 106 110 114 120 121 125 125 125 123 124 127 127 121 117 112 108 104 91 85 85 88 81 78 71 70 78 70 71 75 73 72 71 67 68 68 65 62 58 59 60 56 59 61 57
103 104 105 104 106 109 111 120 125 128 128 127 125 125 126 129 120 116 106 105 106 97 94 93 88 84 72 75 79 72 70 73 74 76 73 71 73 69 68 62 61 62 62 61 67 63 57
91 97 103 107 107 107 109 112 118 125 129 130 129 126 125 125 126 119 115 113 108 103 101 92 90 86 76 81 70 74 74 77 73 69 69 73 73 68 66 65 64 63 62 67 72 58 48
92 93 94 98 105 108 109 110 109 115 125 130 132 130 127 127 124 124 123 123 115 115 110 101 92 83 75 73 76 74 83 83 78 77 64 63 64 64 61 57 53 56 53 55 55 51 40
97 96 95 95 97 102 107 112 113 113 115 123 131 132 132 130 128 130 128 132 124 118 116 105 93 88 84 82 81 78 78 84 82 77 70 68 61 52 56 60 59 55 53 53 54 55 52
94 96 97 95 95 99 102 106 111 115 116 119 125 131 136 134 131 131 130 138 124 122 123 114 110 94 95 92 88 82 87 82 75 76 74 77 67 66 68 64 62 61 57 59 64 62 58
92 97 98 97 97 98 100 103 107 112 116 120 123 127 129 138 138 136 134 133 133 131 128 124 116 106 99 101 97 93 87 85 83 80 77 77 74 79 77 69 65 64 65 64 62 63 60
90 91 92 94 96 97 99 102 106 109 113 118 122 125 128 132 139 137 137 135 135 136 137 130 121 114 111 99 90 98 95 88 86 80 78 74 69 69 74 67 61 62 61 64 68 73 65
86 90 91 93 92 93 97 99 101 105 110 114 118 121 125 127 128 137 136 135 134 138 149 135 124 115 119 116 97 100 94 95 89 87 87 69 72 72 73 67 68 56 69 70 72 71 61
80 83 87 89 91 93 96 97 100 103 106 111 116 117 122 126 124 121 134 138 143 148 155 137 130 125 119 113 103 106 104 102 97 98 85 80 77 82 67 75 73 69 67 70 71 73 69
73 75 78 83 88 91 94 98 101 104 106 109 115 116 116 121 117 123 125 135 150 155 152 144 131 128 119 119 117 110 104 101 98 90 84 80 75 76 71 72 72 74 72 73 74 77 68
68 69 73 78 82 85 88 92 96 100 102 107 111 114 111 111 123 126 129 139 149 153 153 140 135 128 130 126 124 119 117 109 102 100 94 90 89 80 80 79 77 77 77 75 79 77 72
60 63 67 72 75 76 81 86 90 94 97 102 106 109 108 111 118 127 135 151 144 146 148 139 138 138 129 135 128 127 121 114 104 96 87 88 85 79 78 80 85 83 84 80 83 80 77
56 58 60 63 68 72 76 79 82 86 90 97 101 107 107 117 121 129 144 145 140 140 140 144 144 140 132 123 127 130 126 113 107 100 93 95 94 90 87 88 86 84 82 86 88 87 86
49 53 56 59 63 66 69 72 76 80 84 89 96 106 113 120 128 136 141 143 143 141 136 140 145 137 130 125 125 123 123 117 113 107 106 103 98 92 99 98 92 98 93 89 88 92 89
44 47 49 52 55 58 62 66 70 73 77 81 90 97 114 124 131 132 133 140 141 143 138 138 144 127 125 124 125 124 117 110 109 108 111 101 100 101 100 93 94 96 94 92 95 91 83
37 40 43 46 49 52 56 60 63 66 71 76 81 91 109 125 127 131 134 134 137 148 145 137 136 129 124 126 126 121 113 109 112 113 112 107 112 106 104 100 95 94 91 92 90 87 81
32 35 38 42 45 49 52 56 60 64 67 70 79 88 103 114 126 132 134 132 144 139 141 135 127 127 124 129 127 121 114 113 112 111 112 116 117 113 104 92 93 95 92 94 93 90 81
25 29 34 38 43 47 51 55 59 63 65 68 77 81 91 100 117 133 137 139 141 140 137 135 130 126 120 128 131 119 114 114 110 108 108 110 110 103 95 97 98 96 95 92 91 75 75
21 25 29 33 37 41 45 49 54 57 61 66 71 76 85 98 114 134 141 141 136 134 128 131 129 120 114 110 115 115 105 109 108 107 103 98 96 96 93 93 95 95 92 85 75 71 68
18 22 26 31 35 38 42 47 51 55 58 62 67 76 87 97 107 122 137 138 134 131 132 131 119 117 114 105 99 102 107 107 109 103 100 100 96 98 92 91 91 97 76 81 76 72 70
17 21 25 30 33 37 41 44 47 52 56 59 66 77 85 92 101 111 126 138 135 135 128 123 120 119 109 104 104 96 99 109 100 101 100 97 95 96 94 97 99 85 85 82 80 77 75
15 20 23 26 29 32 35 40 44 49 51 57 65 76 83 90 99 108 118 132 139 140 135 127 123 119 108 112 105 104 100 102 104 105 103 97 96 98 100 98 99 89 85 82 82 76 77
14 17 21 23 25 27 31 37 41 45 48 56 64 73 81 88 96 104 113 127 139 139 135 134 132 120 114 116 116 115 110 103 103 101 99 95 92 95 94 95 94 83 84 84 86 81 78
14 15 17 21 22 22 28 34 38 41 47 54 63 71 75 85 93 99 108 123 136 140 139 136 135 128 128 119 115 110 109 104 100 93 92 92 94 93 93 94 93 90 89 89 90 78 85
12 15 16 17 19 20 23 31 35 39 45 52 59 65 73 80 89 96 105 117 134 142 141 144 146 135 129 127 122 114 109 105 103 96 94 95 94 95 93 95 95 91 89 87 85 87 90
13 14 16 16 18 19 21 26 33 37 42 48 56 62 68 77 85 92 100 110 127 143 146 143 141 139 134 127 130 124 118 111 105 102 98 97 96 95 95 95 97 91 94 96 92 93 94
Wind_Direction
242 242 240 237 234 233 233 231 231 232 233 231 232 232 232 234 236 236 229 224 227 229 236 240 238 242 242 231 229 227 228 231 231 232 234 236 238 243 246 247 248 253 259 263 266 270 276
243 241 241 239 237 235 233 233 231 230 231 231 230 231 231 232 232 235 235 227 226 224 233 241 238 244 245 235 235 229 230 233 233 236 237 236 238 241 245 248 252 255 259 261 268 271 272
244 242 240 238 238 236 236 234 233 231 230 230 231 231 231 232 232 232 235 229 223 226 225 232 237 241 246 232 234 229 233 232 234 236 239 241 243 243 248 252 254 257 260 264 266 269 275
245 244 241 239 238 237 237 235 234 232 231 230 229 230 230 231 231 231 230 226 226 224 226 225 238 238 238 239 234 231 232 234 235 236 237 240 243 244 248 253 255 256 259 263 265 269 276
248 245 242 241 239 237 236 236 234 233 232 230 229 228 229 229 228 229 230 228 228 225 227 222 223 235 236 237 236 233 233 235 232 237 240 241 242 245 250 254 261 263 266 263 266 275 284
246 245 244 242 240 239 237 236 235 234 233 232 230 228 227 228 227 227 228 228 230 227 226 228 224 223 233 232 238 233 232 236 238 237 235 242 244 247 249 251 250 249 250 258 264 264 269
246 244 242 242 242 240 238 237 235 235 234 232 231 229 227 227 227 226 228 230 228 228 227 229 224 224 221 233 236 235 236 237 236 240 236 240 239 244 250 245 245 249 250 253 262 267 266
247 245 243 242 241 241 240 238 236 234 232 231 230 231 227 226 226 226 227 229 227 228 227 225 225 223 217 227 232 235 236 243 242 240 241 242 245 244 247 248 252 256 259 262 267 270 271
247 246 244 243 241 239 238 238 238 236 233 231 230 229 229 226 225 225 225 229 227 228 227 225 223 221 222 214 224 233 234 236 241 238 241 242 240 244 246 252 255 262 265 267 267 268 268
246 244 244 242 240 239 237 235 235 235 234 233 230 228 227 227 226 226 226 227 227 229 227 227 226 224 226 220 219 229 232 237 239 241 243 243 244 252 251 256 261 265 259 259 267 268 270
247 243 242 239 238 237 235 234 233 233 232 232 231 228 225 227 225 225 227 228 228 229 228 224 226 225 225 228 224 230 234 233 235 238 244 246 246 250 252 253 256 254 255 261 266 268 275
246 244 241 239 238 234 233 233 232 231 230 230 231 229 226 224 224 225 226 228 229 229 230 222 225 225 225 228 229 231 234 234 233 230 235 235 237 246 253 256 256 256 256 261 271 272 274
245 242 240 239 238 235 234 234 233 232 231 230 230 229 226 223 221 222 224 227 230 228 230 224 223 226 223 228 229 226 232 234 237 239 236 239 236 250 247 254 256 251 252 264 269 269 267
244 241 239 239 238 237 235 234 234 234 233 231 229 229 226 221 220 221 222 226 230 228 229 226 222 226 225 227 228 227 230 231 234 236 235 238 239 248 252 250 250 250 252 259 264 260 265
245 243 241 239 239 237 236 234 233 232 230 229 227 226 224 221 219 219 221 226 228 228 229 226 225 224 227 227 228 230 231 232 233 235 238 240 241 243 247 251 255 252 252 258 255 257 263
242 241 240 239 237 235 234 233 232 231 228 226 224 223 220 218 218 218 221 224 226 228 229 226 226 224 224 228 230 231 231 230 233 235 237 238 237 238 242 239 243 251 253 255 259 264 270
239 238 237 236 235 235 234 232 231 229 227 225 222 220 216 216 216 216 219 222 224 227 227 229 227 224 222 226 229 231 232 232 234 236 238 238 239 239 240 246 249 254 258 255 260 263 270
237 236 234 234 233 232 231 231 230 229 227 225 222 219 216 215 216 217 218 221 223 225 226 228 230 224 223 225 228 231 231 232 233 234 237 241 240 239 243 242 244 246 251 258 263 270 272
235 234 233 232 231 231 230 230 229 228 225 223 219 216 215 215 215 217 218 220 222 223 226 226 230 230 224 226 228 230 230 230 231 233 237 240 242 241 240 242 248 256 259 261 264 266 270
236 235 234 232 231 231 230 229 228 227 225 221 219 216 215 216 213 215 216 216 219 224 225 228 228 230 226 226 226 227 229 232 233 234 236 239 241 243 246 250 248 250 254 256 258 260 267
239 236 235 233 231 230 229 228 226 225 223 219 218 216 215 216 214 214 216 217 219 221 224 226 227 230 228 226 226 227 228 231 233 235 236 239 244 246 246 247 250 253 255 257 261 266 264
238 235 234 233 230 230 230 228 226 225 222 219 217 216 214 214 213 213 214 217 218 222 222 225 227 227 230 231 230 228 228 231 233 236 236 238 241 243 243 246 250 252 254 258 261 260 260
249 241 237 234 231 230 230 228 226 225 224 221 215 216 215 214 214 214 215 216 216 218 219 222 220 226 229 225 228 229 227 230 232 234 238 240 240 243 245 248 249 249 254 256 255 256 258
259 249 244 242 239 235 234 232 229 227 224 219 215 215 216 216 216 214 215 214 214 216 218 217 219 222 222 227 226 230 230 230 230 232 235 238 240 243 243 245 247 252 253 256 256 255 258
259 252 249 246 243 239 235 235 231 228 223 220 216 216 215 215 216 214 214 213 213 213 213 215 217 221 221 223 223 226 223 224 226 230 235 239 241 243 244 247 250 249 255 258 257 258 260
270 259 257 255 249 240 235 232 230 227 221 219 217 217 216 215 216 216 214 213 212 213 214 213 213 215 219 223 225 222 223 224 230 234 238 240 240 241 244 248 251 250 252 251 255 258 267
291 274 263 259 256 244 237 235 231 227 222 220 219 220 218 218 217 216 215 214 214 213 214 211 211 212 217 221 222 226 228 226 223 230 229 232 237 240 245 249 251 250 250 252 259 266 265
297 284 275 264 261 251 235 238 234 228 224 221 221 221 220 219 218 218 216 215 215 214 214 211 213 214 221 222 223 226 227 227 225 226 228 232 237 243 245 245 252 254 251 256 262 265 264
310 287 277 270 260 253 248 238 234 233 228 224 222 224 222 221 220 219 218 217 216 215 215 215 216 215 216 222 225 225 227 228 232 232 233 234 238 241 244 247 248 248 253 258 260 262 266
Height
10542 10550 10558 10567 10575 10585 10594 10605 10617 10628 10642 10653 10665 10678 10691 10701 10713 10726 10738 10746 10755 10763 10771 10780 10789 10797 10808 10820 10823 10823 10827 10832 10838 10844 10847 10852 10857 10860 10863 10866 10872 10873 10874 10876 10874 10878 10880
10512 10520 10527 10536 10545 10555 10565 10575 10588 10601 10612 10627 10641 10653 10667 10679 10692 10704 10717 10729 10737 10745 10752 10763 10773 10782 10795 10812 10794 10814 10818 10824 10829 10832 10838 10843 10848 10850 10852 10856 10863 10865 10865 10868 10866 10870 10869
10481 10489 10497 10505 10514 10525 10537 10547 10559 10572 10585 10600 10615 10628 10642 10656 10670 10683 10695 10708 10717 10727 10733 10745 10756 10768 10786 10794 10787 10804 10806 10809 10816 10819 10826 10833 10834 10839 10842 10846 10854 10855 10856 10859 10859 10858 10860
10451 10459 10467 10476 10486 10497 10507 10519 10531 10543 10558 10572 10588 10602 10616 10634 10647 10661 10674 10685 10696 10706 10715 10725 10739 10755 10779 10768 10773 10791 10794 10796 10803 10805 10814 10821 10821 10829 10833 10839 10844 10845 10846 10850 10843 10847 10852
10420 10428 10436 10446 10456 10467 10478 10489 10503 10515 10529 10544 10559 10577 10591 10608 10624 10640 10651 10660 10672 10683 10694 10704 10720 10739 10763 10749 10773 10773 10780 10779 10786 10794 10803 10807 10811 10820 10825 10830 10833 10837 10839 10836 10832 10841 10845
10392 10399 10406 10414 10425 10437 10449 10461 10475 10488 10501 10514 10532 10549 10566 10583 10602 10616 10624 10631 10646 10660 10671 10687 10703 10725 10748 10742 10749 10758 10756 10756 10771 10777 10791 10796 10802 10812 10818 10820 10822 10818 10822 10824 10824 10830 10837
10363 10371 10378 10387 10396 10406 10417 10430 10443 10457 10472 10486 10501 10521 10539 10557 10573 10589 10597 10597 10620 10640 10656 10683 10698 10712 10720 10723 10728 10741 10740 10742 10755 10768 10784 10778 10792 10807 10803 10799 10802 10810 10815 10815 10814 10817 10827
10332 10340 10349 10360 10369 10378 10388 10398 10410 10425 10440 10456 10472 10489 10510 10529 10543 10558 10563 10568 10616 10618 10622 10645 10663 10681 10687 10702 10710 10720 10724 10732 10745 10760 10763 10768 10792 10788 10780 10787 10794 10799 10804 10806 10799 10803 10812
10302 10310 10318 10330 10339 10349 10359 10370 10380 10393 10408 10423 10441 10460 10478 10497 10508 10526 10534 10555 10582 10580 10596 10617 10641 10656 10665 10675 10685 10696 10704 10716 10723 10733 10748 10754 10771 10761 10768 10778 10787 10789 10794 10788 10788 10783 10800
10271 10279 10287 10298 10309 10319 10328 10339 10351 10363 10377 10392 10409 10429 10447 10461 10487 10509 10520 10536 10555 10553 10567 10595 10617 10651 10649 10667 10682 10678 10691 10703 10711 10726 10732 10742 10752 10756 10761 10771 10771 10776 10771 10769 10775 10772 10784
10239 10248 10257 10267 10280 10290 10299 10310 10322 10334 10348 10363 10379 10397 10418 10439 10466 10481 10514 10510 10522 10517 10509 10573 10604 10628 10630 10640 10687 10668 10670 10681 10699 10708 10711 10747 10741 10738 10742 10760 10747 10768 10753 10759 10762 10764 10771
10210 10219 10229 10239 10249 10261 10271 10282 10294 10306 10320 10335 10350 10368 10389 10411 10441 10473 10478 10481 10478 10474 10470 10552 10573 10593 10606 10634 10656 10650 10652 10660 10672 10679 10697 10719 10721 10715 10744 10737 10739 10745 10747 10747 10751 10750 10765
10182 10192 10203 10212 10222 10234 10245 10256 10267 10278 10293 10308 10323 10339 10361 10387 10435 10428 10443 10442 10428 10434 10454 10528 10560 10574 10605 10610 10618 10630 10631 10646 10663 10678 10701 10704 10714 10716 10719 10727 10726 10728 10733 10732 10734 10735 10752
10158 10168 10177 10186 10196 10208 10219 10229 10240 10252 10266 10280 10294 10310 10337 10373 10377 10397 10403 10393 10379 10425 10439 10512 10541 10556 10562 10581 10584 10602 10606 10620 10639 10660 10677 10685 10694 10708 10707 10712 10713 10708 10709 10716 10716 10720 10735
10139 10147 10154 10162 10172 10183 10191 10201 10212 10224 10237 10250 10265 10287 10313 10339 10354 10363 10366 10346 10374 10402 10435 10484 10508 10517 10536 10542 10571 10574 10590 10612 10634 10645 10663 10671 10684 10688 10688 10691 10685 10697 10692 10706 10695 10704 10717
10119 10127 10135 10142 10149 10157 10166 10177 10188 10199 10211 10222 10242 10261 10290 10300 10317 10322 10314 10339 10362 10386 10414 10442 10460 10494 10521 10540 10543 10552 10573 10610 10625 10634 10640 10651 10656 10666 10668 10659 10665 10673 10682 10682 10690 10698 10702
10104 10109 10116 10123 10131 10139 10148 10157 10166 10177 10187 10200 10218 10237 10259 10270 10275 10278 10294 10322 10344 10370 10394 10409 10438 10476 10510 10516 10526 10539 10559 10596 10603 10618 10621 10623 10637 10651 10641 10646 10675 10663 10666 10672 10675 10679 10688
10092 10097 10103 10109 10116 10123 10131 10139 10147 10158 10168 10182 10196 10218 10227 10236 10247 10270 10291 10307 10334 10348 10371 10386 10407 10454 10490 10503 10509 10522 10547 10576 10591 10594 10588 10611 10613 10619 10631 10641 10635 10639 10651 10656 10659 10673 10673
10082 10087 10092 10098 10104 10110 10117 10125 10133 10142 10151 10162 10180 10194 10195 10212 10237 10255 10275 10298 10317 10330 10346 10372 10394 10430 10473 10481 10491 10510 10535 10551 10554 10563 10573 10587 10584 10599 10608 10614 10631 10639 10642 10643 10644 10649 10661
10074 10079 10083 10088 10093 10098 10105 10112 10119 10126 10135 10150 10158 10169 10176 10196 10227 10237 10257 10290 10299 10316 10334 10351 10387 10405 10439 10452 10467 10497 10516 10522 10535 10548 10556 10553 10558 10572 10602 10630 10607 10612 10620 10621 10621 10628 10648
10068 10071 10074 10077 10082 10086 10092 10098 10104 10111 10121 10134 10144 10159 10176 10196 10216 10226 10241 10263 10282 10299 10320 10341 10368 10384 10417 10435 10456 10482 10497 10501 10513 10526 10539 10541 10551 10573 10594 10587 10589 10597 10603 10607 10611 10634 10626
10062 10064 10066 10069 10072 10077 10082 10088 10093 10101 10110 10120 10136 10152 10164 10175 10184 10196 10216 10241 10271 10285 10316 10329 10354 10374 10399 10421 10444 10471 10480 10488 10499 10508 10521 10527 10546 10546 10563 10568 10569 10572 10583 10597 10606 10610 10613
10059 10060 10061 10062 10065 10068 10072 10077 10083 10090 10100 10113 10126 10136 10143 10155 10169 10182 10208 10238 10264 10281 10293 10313 10352 10357 10374 10407 10417 10439 10455 10464 10475 10483 10494 10510 10527 10529 10550 10542 10539 10536 10590 10578 10588 10593 10597
10054 10054 10054 10055 10058 10061 10064 10068 10075 10080 10088 10101 10111 10116 10129 10144 10156 10176 10191 10216 10241 10258 10286 10310 10327 10335 10370 10383 10402 10416 10430 10441 10455 10465 10474 10490 10503 10507 10526 10515 10508 10559 10552 10562 10567 10577 10581
10050 10048 10048 10049 10050 10054 10058 10060 10064 10070 10080 10089 10097 10102 10113 10128 10140 10154 10176 10201 10218 10232 10255 10287 10301 10324 10349 10361 10376 10388 10404 10416 10434 10446 10455 10470 10479 10485 10496 10500 10508 10531 10541 10544 10544 10559 10558
10045 10044 10043 10043 10044 10047 10049 10051 10054 10060 10070 10077 10084 10093 10102 10114 10126 10139 10158 10177 10197 10220 10244 10261 10283 10314 10326 10338 10349 10361 10376 10399 10416 10430 10444 10451 10458 10465 10475 10478 10489 10525 10521 10520 10518 10537 10545
10041 10040 10039 10038 10038 10040 10042 10043 10046 10053 10060 10067 10073 10080 10093 10103 10114 10129 10150 10163 10181 10203 10226 10247 10275 10290 10301 10318 10332 10348 10362 10382 10399 10411 10426 10430 10436 10444 10456 10463 10476 10492 10503 10503 10504 10536 10518
10038 10035 10033 10034 10033 10034 10036 10037 10040 10045 10052 10059 10064 10072 10082 10092 10104 10118 10135 10151 10167 10188 10213 10236 10257 10280 10291 10303 10314 10326 10341 10359 10381 10397 10405 10415 10422 10430 10441 10448 10458 10470 10480 10493 10498 10499 10500
10036 10032 10030 10029 10030 10030 10030 10031 10034 10038 10043 10050 10056 10063 10071 10080 10093 10105 10121 10137 10153 10171 10196 10218 10235 10255 10276 10284 10295 10313 10323 10341 10363 10378 10389 10399 10410 10418 10428 10440 10440 10453 10463 10470 10473 10476 10479